WXM80 ListenWXM80 Stop

You find our weather info also at:

UK Metoffice

WeatherCloud

Weather Underground

Northeastern Weather Network

AWEKAS

Citizen Weather Observer Program (CWOP)

HAMweather, WeatherForYou, PWS Weather


Weather Underground History page Text

Daily Summary for January 1, 2018 Units:  Metric    English   Both
« Previous Day
Next Day »
Daily Weekly Monthly Yearly Custom
  High: Low: Average:
Temperature: -17.8 °C -13.1 °C -10.1 °C
Dew Point: -17.8 °C -17.7 °C -16.4 °C
Humidity: Humidity % 46 % 60 %
Wind Speed: 0 km/h 1.4 km/h 8.2 km/h
Wind Gust: 0 km/h - -
Wind:- - WNW
Pressure: 0 hPa 1026 hPa -
Precipitation: 0 mm    
Historical Graphs
 
 
Tabular Data for January 1, 2018
Time Temperature Dew Point Pressure Wind Wind Speed Wind Gust Humidity Rainfall Rate (Hourly)
-17.8 °C -17.8 °C 0 hPa Calm     Humidity % 0 mm
00:01 -11.7 °C -17 °C 1026 hPa WNW 7.9 km/h 13 km/h 65 % 0 mm
00:06 -11.8 °C -16.8 °C 1026 hPa North 9.2 km/h 13 km/h 66 % 0 mm
00:11 -11.8 °C -17.1 °C 1026 hPa NNW 9 km/h 16.7 km/h 65 % 0 mm
00:14 -11.8 °C -17.1 °C 1026 hPa North 9.2 km/h 24.1 km/h 65 % 0 mm
00:17 -11.8 °C -17.1 °C 1026 hPa NW 7.7 km/h 11.1 km/h 65 % 0 mm
00:20 -11.8 °C -17.1 °C 1026 hPa North 7.7 km/h 14.8 km/h 65 % 0 mm
00:26 -11.9 °C -16.9 °C 1026 hPa NW 9.5 km/h 18.5 km/h 66 % 0 mm
00:31 -11.9 °C -16.9 °C 1026 hPa NNW 4.8 km/h 19.3 km/h 66 % 0 mm
00:36 -11.9 °C -17 °C 1026 hPa NNW 11.1 km/h 22.5 km/h 66 % 0 mm
00:37 -11.9 °C -17 °C 1026 hPa NNW 5.5 km/h 22.2 km/h 66 % 0 mm
00:42 -11.9 °C -17 °C 1026 hPa NE 7.7 km/h 11.1 km/h 66 % 0 mm
00:44 -11.9 °C -16.8 °C 1026 hPa NNW 12.6 km/h 18.5 km/h 67 % 0 mm
00:46 -11.9 °C -16.9 °C 1026 hPa NW 8.4 km/h 13 km/h 66 % 0 mm
00:50 -11.9 °C -16.9 °C 1026 hPa North 8 km/h 19.3 km/h 66 % 0 mm
00:52 -11.9 °C -17 °C 1026 hPa North 12.4 km/h 18.5 km/h 66 % 0 mm
00:57 -11.9 °C -17 °C 1026.3 hPa NW 6.3 km/h 11.1 km/h 66 % 0 mm
01:01 -11.9 °C -16.8 °C 1026 hPa WNW 10.1 km/h 20.4 km/h 67 % 0 mm
01:05 -11.9 °C -17 °C 1026 hPa North 8.4 km/h 11.1 km/h 66 % 0 mm
01:11 -11.9 °C -16.8 °C 1026 hPa NNW 4.8 km/h 22.5 km/h 67 % 0 mm
01:16 -11.9 °C -16.8 °C 1026 hPa WNW 10 km/h 20.4 km/h 67 % 0 mm
01:21 -12 °C -17.1 °C 1026.3 hPa NNW 6.9 km/h 20.4 km/h 66 % 0 mm
01:26 -11.9 °C -16.7 °C 1026.3 hPa North 9.5 km/h 12.9 km/h 68 % 0 mm
01:28 -11.9 °C -16.7 °C 1026 hPa NNW 11.6 km/h 18.5 km/h 68 % 0 mm
01:31 -12 °C -16.7 °C 1026.3 hPa NW 5 km/h 14.8 km/h 68 % 0 mm
01:35 -11.9 °C -16.7 °C 1026.3 hPa North 11.6 km/h 18.5 km/h 68 % 0 mm
01:40 -11.9 °C -16.5 °C 1026.3 hPa North 11.7 km/h 22.5 km/h 69 % 0 mm
01:43 -11.9 °C -16.8 °C 1026.3 hPa WNW 11.1 km/h 22.5 km/h 67 % 0 mm
01:48 -11.9 °C -16.7 °C 1026.3 hPa NW 5.6 km/h 11.3 km/h 68 % 0 mm
01:53 -12 °C -16.9 °C 1026.3 hPa North 6.4 km/h 16.7 km/h 67 % 0 mm
01:58 -12 °C -16.9 °C 1026.6 hPa NNW 7.9 km/h 13 km/h 67 % 0 mm
02:03 -12 °C -16.9 °C 1026.6 hPa NNW 8 km/h 18.5 km/h 67 % 0 mm
02:04 -12 °C -16.9 °C 1026.6 hPa NW 6.3 km/h 16.7 km/h 67 % 0 mm
02:09 -12.1 °C -16.9 °C 1026.6 hPa NNW 12.4 km/h 18.5 km/h 67 % 0 mm
02:14 -12.1 °C -16.8 °C 1026.6 hPa NNW 7.1 km/h 13 km/h 68 % 0 mm
02:15 -12.1 °C -16.9 °C 1026.6 hPa North 7.6 km/h 14.8 km/h 67 % 0 mm
02:20 -12.1 °C -16.9 °C 1026.6 hPa NW 6.9 km/h 12.9 km/h 67 % 0 mm
02:21 -12.1 °C -16.9 °C 1026.6 hPa NW 7.4 km/h 11.3 km/h 67 % 0 mm
02:26 -12.1 °C -17 °C 1026.6 hPa NW 8 km/h 19.3 km/h 67 % 0 mm
02:27 -12.1 °C -17.2 °C 1026.6 hPa NW 4.5 km/h 13 km/h 66 % 0 mm
02:32 -12.1 °C -17 °C 1026.6 hPa NNW 4.5 km/h 11.1 km/h 67 % 0 mm
02:37 -12.1 °C -16.8 °C 1026.6 hPa NW 7.4 km/h 16.7 km/h 68 % 0 mm
02:42 -12.2 °C -17.1 °C 1026.6 hPa NNW 8.5 km/h 18.5 km/h 67 % 0 mm
02:43 -12.2 °C -17.1 °C 1026.6 hPa NW 11.3 km/h 18.5 km/h 67 % 0 mm
02:45 -12.2 °C -16.9 °C 1026.6 hPa NW 2.7 km/h 5.6 km/h 68 % 0 mm
02:48 -12.2 °C -16.9 °C 1026.6 hPa NW 7.2 km/h 9.3 km/h 68 % 0 mm
02:50 -12.2 °C -16.9 °C 1026.6 hPa NW 6.9 km/h 18.5 km/h 68 % 0 mm
02:55 -12.2 °C -16.9 °C 1026.6 hPa NW 8.9 km/h 18.5 km/h 68 % 0 mm
03:00 -12.2 °C -16.9 °C 1026.6 hPa WNW 4.8 km/h 11.3 km/h 68 % 0 mm
03:05 -12.2 °C -16.9 °C 1026.6 hPa NW 6.4 km/h 16.7 km/h 68 % 0 mm
03:07 -12.2 °C -16.9 °C 1026.6 hPa NNE 10.3 km/h 20.4 km/h 68 % 0 mm
03:12 -12.3 °C -17 °C 1026.6 hPa WNW 8.4 km/h 20.4 km/h 68 % 0 mm
03:13 -12.3 °C -17 °C 1026.6 hPa NNW 7.7 km/h 14.8 km/h 68 % 0 mm
03:18 -12.3 °C -17.2 °C 1026.3 hPa North 8 km/h 14.8 km/h 67 % 0 mm
03:20 -12.3 °C -17.2 °C 1026.3 hPa NNW 4.7 km/h 9.3 km/h 67 % 0 mm
03:25 -12.3 °C -17.1 °C 1026.3 hPa NNW 6.4 km/h 14.8 km/h 68 % 0 mm
03:30 -12.3 °C -17.1 °C 1026.3 hPa NW 4.8 km/h 18.5 km/h 68 % 0 mm
03:33 -12.3 °C -17.1 °C 1026.3 hPa West 7.4 km/h 19.3 km/h 68 % 0 mm
03:38 -12.4 °C -17.1 °C 1026.3 hPa NW 1.4 km/h 4.8 km/h 68 % 0 mm
03:40 -12.4 °C -17.1 °C 1026.3 hPa NW 9 km/h 16.7 km/h 68 % 0 mm
03:41 -12.4 °C -17.1 °C 1026.3 hPa NW 6 km/h 11.1 km/h 68 % 0 mm
03:46 -12.4 °C -17.1 °C 1026.3 hPa WNW 14.3 km/h 18.5 km/h 68 % 0 mm
03:47 -12.4 °C -17.1 °C 1026 hPa NW 5.8 km/h 18.5 km/h 68 % 0 mm
03:52 -12.4 °C -17.1 °C 1026.3 hPa West 6.6 km/h 14.5 km/h 68 % 0 mm
03:57 -12.4 °C -17.1 °C 1026.3 hPa NW 8.7 km/h 13 km/h 68 % 0 mm
04:02 -12.4 °C -17.1 °C 1026.3 hPa West 8.5 km/h 14.5 km/h 68 % 0 mm
04:03 -12.4 °C -17.1 °C 1026 hPa NNW 7.1 km/h 16.7 km/h 68 % 0 mm
04:08 -12.5 °C -17.2 °C 1026.3 hPa WNW 4.5 km/h 18.5 km/h 68 % 0 mm
04:13 -12.6 °C -17.1 °C 1026.3 hPa NNE 10.3 km/h 16.7 km/h 69 % 0 mm
04:18 -12.6 °C -17.1 °C 1026.3 hPa NNW 6.4 km/h 19.3 km/h 69 % 0 mm
04:20 -12.6 °C -17.1 °C 1026.3 hPa North 9.7 km/h 18.5 km/h 69 % 0 mm
04:24 -12.6 °C -17.2 °C 1026.3 hPa NW 5.3 km/h 18.5 km/h 68 % 0 mm
04:29 -12.6 °C -17.1 °C 1026.3 hPa NW 6.9 km/h 25.9 km/h 69 % 0 mm
04:30 -12.6 °C -17.1 °C 1026.3 hPa NW 8.2 km/h 16.1 km/h 69 % 0 mm
04:35 -12.6 °C -16.9 °C 1026.3 hPa NW 5.6 km/h 16.7 km/h 70 % 0 mm
04:39 -12.6 °C -16.9 °C 1026.3 hPa NW 2.6 km/h 14.8 km/h 70 % 0 mm
04:41 -12.6 °C -16.9 °C 1026.3 hPa WSW 3.2 km/h 5.6 km/h 70 % 0 mm
04:44 -12.7 °C -17 °C 1026.6 hPa WNW 9.5 km/h 14.8 km/h 70 % 0 mm
04:49 -12.7 °C -17 °C 1026.6 hPa NW 8.2 km/h 16.7 km/h 70 % 0 mm
04:51 -12.7 °C -17 °C 1026.6 hPa NNW 11.3 km/h 20.9 km/h 70 % 0 mm
04:56 -12.7 °C -17.2 °C 1026.6 hPa WNW 6.9 km/h 27.8 km/h 69 % 0 mm
04:57 -12.7 °C -17.2 °C 1026.6 hPa North 5.6 km/h 14.8 km/h 69 % 0 mm
05:02 -12.7 °C -17 °C 1026.6 hPa WNW 6.9 km/h 16.7 km/h 70 % 0 mm
05:07 -12.7 °C -17 °C 1026.6 hPa NW 11.3 km/h 20.4 km/h 70 % 0 mm
05:10 -12.7 °C -17 °C 1026.6 hPa NNW 6.6 km/h 14.8 km/h 70 % 0 mm
05:12 -12.7 °C -17 °C 1027 hPa NW 8.2 km/h 18.5 km/h 70 % 0 mm
05:17 -12.7 °C -17.1 °C 1027 hPa NNW 4 km/h 9.7 km/h 70 % 0 mm
05:23 -12.7 °C -17.1 °C 1027 hPa NW 9.2 km/h 18.5 km/h 70 % 0 mm
05:24 -12.7 °C -17.1 °C 1026.6 hPa WNW 10.1 km/h 13 km/h 70 % 0 mm
05:28 -12.7 °C -17.1 °C 1027 hPa WNW 12.1 km/h 20.9 km/h 70 % 0 mm
05:32 -12.8 °C -17.1 °C 1026.6 hPa North 8.7 km/h 20.9 km/h 70 % 0 mm
05:37 -12.8 °C -17.3 °C 1027 hPa NW 7.7 km/h 16.7 km/h 69 % 0 mm
05:40 -12.8 °C -17.1 °C 1026.6 hPa NNW 9 km/h 18.5 km/h 70 % 0 mm
05:46 -12.8 °C -17.1 °C 1026.6 hPa NNW 9.7 km/h 25.7 km/h 70 % 0 mm
05:48 -12.8 °C -17.3 °C 1026.6 hPa NNW 8 km/h 11.3 km/h 69 % 0 mm
05:53 -12.8 °C -17.1 °C 1026.6 hPa NNW 9 km/h 14.8 km/h 70 % 0 mm
05:58 -12.8 °C -17.1 °C 1027 hPa NNW 10.9 km/h 16.7 km/h 70 % 0 mm
06:01 -12.8 °C -17.1 °C 1027 hPa NW 8 km/h 14.8 km/h 70 % 0 mm
06:02 -12.8 °C -16.9 °C 1027 hPa NNW 7.7 km/h 11.1 km/h 71 % 0 mm
06:07 -12.8 °C -17.1 °C 1027 hPa NW 8 km/h 8 km/h 70 % 0 mm
06:09 -12.8 °C -17.1 °C 1027 hPa WNW 8.2 km/h 9.7 km/h 70 % 0 mm
06:14 -12.8 °C -17.1 °C 1027 hPa NW 6.8 km/h 13 km/h 70 % 0 mm
06:16 -12.8 °C -17.1 °C 1027.3 hPa NNW 13.4 km/h 22.2 km/h 70 % 0 mm
06:21 -12.8 °C -17.2 °C 1027.3 hPa NW 10.5 km/h 17.7 km/h 70 % 0 mm
06:23 -12.8 °C -17.2 °C 1027.3 hPa NW 7.2 km/h 16.7 km/h 70 % 0 mm
06:26 -12.8 °C -17.2 °C 1027.3 hPa NNW 9.2 km/h 19.3 km/h 70 % 0 mm
06:28 -12.8 °C -17 °C 1027.3 hPa NW 10.1 km/h 20.4 km/h 71 % 0 mm
06:34 -12.8 °C -17.2 °C 1027.3 hPa NW 9.7 km/h 18.5 km/h 70 % 0 mm
06:38 -12.8 °C -17.3 °C 1027.3 hPa NW 8.7 km/h 18.5 km/h 69 % 0 mm
06:43 -12.9 °C -17.4 °C 1027.3 hPa NNW 8.4 km/h 20.4 km/h 69 % 0 mm
06:48 -12.9 °C -17.4 °C 1027.3 hPa NNW 8.9 km/h 16.7 km/h 69 % 0 mm
06:53 -12.9 °C -17.4 °C 1027.3 hPa NW 7.4 km/h 7.4 km/h 69 % 0 mm
06:54 -12.9 °C -17.4 °C 1027.7 hPa North 8.2 km/h 12.9 km/h 69 % 0 mm
06:59 -12.9 °C -17.3 °C 1027.7 hPa NW 7.9 km/h 22.2 km/h 70 % 0 mm
07:04 -12.9 °C -17.3 °C 1027.3 hPa North 7.9 km/h 18.5 km/h 70 % 0 mm
07:09 -13 °C -17.2 °C 1027.7 hPa NW 10 km/h 17.7 km/h 71 % 0 mm
07:12 -12.9 °C -17.1 °C 1027.7 hPa WNW 8.5 km/h 13 km/h 71 % 0 mm
07:18 -13 °C -17.2 °C 1027.7 hPa NNW 5.8 km/h 8 km/h 71 % 0 mm
07:23 -13 °C -17 °C 1027.7 hPa NNW 5.1 km/h 11.3 km/h 72 % 0 mm
07:25 -13 °C -17 °C 1027.7 hPa NW 8.2 km/h 11.1 km/h 72 % 0 mm
07:30 -13 °C -17.2 °C 1027.7 hPa NW 8.2 km/h 14.8 km/h 71 % 0 mm
07:35 -13 °C -17.3 °C 1027.7 hPa NNW 8.4 km/h 16.7 km/h 70 % 0 mm
07:38 -13 °C -17.3 °C 1027.7 hPa NW 6 km/h 12.9 km/h 70 % 0 mm
07:43 -13.1 °C -17.6 °C 1027.7 hPa NW 6.9 km/h 13 km/h 69 % 0 mm
07:48 -13.1 °C -17.6 °C 1027.7 hPa NW 5.1 km/h 9.3 km/h 69 % 0 mm
07:49 -13.1 °C -17.6 °C 1027.7 hPa WNW 5.6 km/h 9.7 km/h 69 % 0 mm
07:54 -13 °C -17.3 °C 1027.7 hPa NNW 7.6 km/h 16.7 km/h 70 % 0 mm
07:59 -13.1 °C -17.6 °C 1027.7 hPa NW 8.9 km/h 16.7 km/h 69 % 0 mm
08:03 -13 °C -17.3 °C 1027.7 hPa NNW 5.3 km/h 13 km/h 70 % 0 mm
08:06 -13 °C -17.2 °C 1028 hPa NW 3.7 km/h 11.1 km/h 71 % 0 mm
08:09 -12.9 °C -16.9 °C 1028 hPa NW 4.8 km/h 7.4 km/h 72 % 0 mm
08:14 -12.9 °C -16.9 °C 1028 hPa NW 1.8 km/h 11.1 km/h 72 % 0 mm
08:19 -12.9 °C -16.9 °C 1028 hPa NW 9.2 km/h 13 km/h 72 % 0 mm
08:22 -12.9 °C -16.9 °C 1028 hPa WNW 6.6 km/h 11.1 km/h 72 % 0 mm
08:27 -12.9 °C -16.9 °C 1028 hPa WNW 4.3 km/h 13 km/h 72 % 0 mm
08:33 -12.8 °C -16.8 °C 1028.3 hPa NNW 5.6 km/h 5.6 km/h 72 % 0 mm
08:34 -12.8 °C -16.8 °C 1028.3 hPa NW 4.5 km/h 11.1 km/h 72 % 0 mm
08:39 -12.8 °C -16.8 °C 1028.3 hPa West 2.9 km/h 5.6 km/h 72 % 0 mm
08:43 -12.7 °C -16.7 °C 1028.3 hPa West 8.2 km/h 13 km/h 72 % 0 mm
08:48 -12.7 °C -16.8 °C 1028.3 hPa NW 8.7 km/h 13 km/h 71 % 0 mm
08:53 -12.7 °C -17 °C 1028.3 hPa NW 4.3 km/h 13 km/h 70 % 0 mm
08:58 -12.6 °C -16.9 °C 1028.3 hPa WSW 9.7 km/h 13 km/h 70 % 0 mm
09:00 -12.6 °C -16.9 °C 1028.3 hPa WSW 9.7 km/h 9.7 km/h 70 % 0 mm
09:05 -12.6 °C -17.1 °C 1028.3 hPa NW 4.5 km/h 7.4 km/h 69 % 0 mm
09:07 -12.6 °C -17.1 °C 1028.3 hPa WNW 5.5 km/h 13 km/h 69 % 0 mm
09:13 -12.5 °C -16.8 °C 1028.3 hPa WNW 8.5 km/h 11.1 km/h 70 % 0 mm
09:18 -12.4 °C -16.7 °C 1028.3 hPa NNW 8.7 km/h 14.8 km/h 70 % 0 mm
09:21 -12.3 °C -16.7 °C 1028.3 hPa NNW 3.4 km/h 5.6 km/h 70 % 0 mm
09:26 -12.3 °C -16.6 °C 1028.3 hPa WNW 5.3 km/h 11.3 km/h 70 % 0 mm
09:31 -12.2 °C -16.5 °C 1028.3 hPa WNW 8 km/h 14.8 km/h 70 % 0 mm
09:36 -12.1 °C -16.4 °C 1028.3 hPa WNW 3.2 km/h 11.1 km/h 70 % 0 mm
09:41 -12 °C -16.4 °C 1028.3 hPa NW 9 km/h 12.9 km/h 70 % 0 mm
09:43 -12 °C -16.6 °C 1028.7 hPa NW 5.1 km/h 13 km/h 69 % 0 mm
09:48 -11.8 °C -16.6 °C 1028.7 hPa WNW 6.9 km/h 13 km/h 68 % 0 mm
09:53 -11.7 °C -16.4 °C 1028.7 hPa NNW 5.3 km/h 18.5 km/h 68 % 0 mm
09:58 -11.6 °C -16.4 °C 1028.7 hPa NNW 2.6 km/h 14.8 km/h 67 % 0 mm
10:02 -11.4 °C -16.3 °C 1028.7 hPa NE 4.8 km/h 11.3 km/h 67 % 0 mm
10:07 -11.3 °C -16.4 °C 1028.7 hPa NNW 4.8 km/h 13 km/h 66 % 0 mm
10:10 -11.2 °C -16.5 °C 1028.3 hPa WNW 5 km/h 9.3 km/h 65 % 0 mm
10:15 -11.1 °C -16.3 °C 1028.3 hPa WNW 4.5 km/h 7.4 km/h 65 % 0 mm
10:16 -11.1 °C -16.3 °C 1028.3 hPa WNW 3.9 km/h 7.4 km/h 65 % 0 mm
10:18 -10.9 °C -16.1 °C 1028.3 hPa North 4.7 km/h 5.6 km/h 66 % 0 mm
10:21 -10.8 °C -15.9 °C 1028.3 hPa NW 5.5 km/h 11.1 km/h 66 % 0 mm
10:25 -10.7 °C -16.1 °C 1028.3 hPa NW 6.1 km/h 9.3 km/h 65 % 0 mm
10:30 -10.6 °C -15.5 °C 1028.3 hPa NW 7.6 km/h 9.7 km/h 67 % 0 mm
10:35 -10.4 °C -15.9 °C 1028.3 hPa North 4.2 km/h 7.4 km/h 64 % 0 mm
10:38 -10.4 °C -15.8 °C 1028.3 hPa NW 6.4 km/h 9.3 km/h 65 % 0 mm
10:41 -10.4 °C -15.7 °C 1028.3 hPa North 5 km/h 9.3 km/h 65 % 0 mm
10:45 -10.3 °C -15.7 °C 1028.3 hPa WNW 5.5 km/h 11.1 km/h 65 % 0 mm
10:48 -10.3 °C -15.8 °C 1028.3 hPa NNW 7.2 km/h 14.5 km/h 64 % 0 mm
10:49 -10.3 °C -15.6 °C 1028.3 hPa NW 9.2 km/h 14.8 km/h 65 % 0 mm
10:54 -10.2 °C -15.6 °C 1028 hPa NNW 5.3 km/h 11.1 km/h 65 % 0 mm
10:59 -10.2 °C -15.5 °C 1028 hPa NW 4.7 km/h 11.1 km/h 65 % 0 mm
11:04 -10.2 °C -15.9 °C 1028 hPa NW 3.2 km/h 11.1 km/h 63 % 0 mm
11:09 -10.3 °C -15.8 °C 1028 hPa NW 5.5 km/h 14.8 km/h 64 % 0 mm
11:10 -10.3 °C -15.8 °C 1027.7 hPa North 3.9 km/h 9.3 km/h 64 % 0 mm
11:15 -10.3 °C -15.8 °C 1027.7 hPa WNW 6.8 km/h 11.1 km/h 64 % 0 mm
11:18 -10.3 °C -15.8 °C 1027.7 hPa NNW 5.6 km/h 9.7 km/h 64 % 0 mm
11:22 -10.3 °C -16.2 °C 1027.7 hPa WNW 6.9 km/h 14.5 km/h 62 % 0 mm
11:27 -10.3 °C -16.1 °C 1027.7 hPa West 3.7 km/h 9.3 km/h 63 % 0 mm
11:29 -10.4 °C -16.3 °C 1028 hPa West 2.9 km/h 7.4 km/h 62 % 0 mm
11:34 -10.4 °C -16.5 °C 1027.7 hPa NW 4.7 km/h 14.8 km/h 61 % 0 mm
11:36 -10.3 °C -16.4 °C 1027.7 hPa NW 3.4 km/h 9.3 km/h 61 % 0 mm
11:38 -10.4 °C -16.7 °C 1027.7 hPa NW 10 km/h 13 km/h 60 % 0 mm
11:44 -10.4 °C -16.9 °C 1027.7 hPa WSW 5.6 km/h 11.1 km/h 59 % 0 mm
11:49 -10.4 °C -16.7 °C 1027.7 hPa NW 5 km/h 11.1 km/h 60 % 0 mm
11:50 -10.4 °C -16.5 °C 1027.3 hPa West 7.4 km/h 11.1 km/h 61 % 0 mm
11:55 -10.4 °C -16.9 °C 1027.3 hPa WSW 9.2 km/h 13 km/h 59 % 0 mm
11:58 -10.3 °C -16.6 °C 1027.3 hPa WNW 6.6 km/h 13 km/h 60 % 0 mm
12:03 -10.3 °C -16.8 °C 1027.3 hPa NW 7.4 km/h 11.1 km/h 59 % 0 mm
12:04 -10.3 °C -16.8 °C 1027.3 hPa NW 6.4 km/h 13 km/h 59 % 0 mm
12:07 -10.2 °C -16.5 °C 1027.3 hPa WSW 6 km/h 7.4 km/h 60 % 0 mm
12:12 -10.2 °C -16.4 °C 1027.3 hPa West 1.4 km/h 7.4 km/h 60 % 0 mm
12:13 -10.1 °C -16.4 °C 1027.3 hPa North 1.9 km/h 6.4 km/h 60 % 0 mm
12:14 -10 °C -16.3 °C 1027 hPa NW 3.5 km/h 5.6 km/h 60 % 0 mm
12:18 -9.9 °C -16.3 °C 1027 hPa NNW 2.3 km/h 5.6 km/h 60 % 0 mm
12:22 -9.8 °C -15.9 °C 1027 hPa WSW 6 km/h 11.1 km/h 61 % 0 mm
12:23 -9.7 °C -15.8 °C 1027 hPa NW 4.7 km/h 8 km/h 61 % 0 mm
12:28 -9.4 °C -16.1 °C 1027 hPa NNW 5.1 km/h 11.1 km/h 58 % 0 mm
12:33 -9.1 °C -15.8 °C 1027 hPa NNW 7.9 km/h 18.5 km/h 58 % 0 mm
12:36 -8.8 °C -15.8 °C 1027 hPa WNW 10 km/h 24.1 km/h 57 % 0 mm
12:41 -8.7 °C -16.3 °C 1027 hPa NNW 11.1 km/h 18.5 km/h 54 % 0 mm
12:47 -8.6 °C -16.2 °C 1027 hPa NNW 6.8 km/h 9.3 km/h 54 % 0 mm
12:51 -8.4 °C -16.1 °C 1027 hPa WSW 7.7 km/h 18.5 km/h 54 % 0 mm
12:56 -8.4 °C -16.3 °C 1027 hPa North 9.3 km/h 13 km/h 53 % 0 mm
12:58 -8.3 °C -16.2 °C 1027 hPa WNW 7.7 km/h 13 km/h 53 % 0 mm
13:03 -8.3 °C -16.4 °C 1026.6 hPa WNW 6.9 km/h 17.7 km/h 52 % 0 mm
13:04 -8.3 °C -16.4 °C 1026.6 hPa NW 8.9 km/h 20.4 km/h 52 % 0 mm
13:07 -8.2 °C -16.1 °C 1026.6 hPa North 10 km/h 20.4 km/h 53 % 0 mm
13:12 -8.2 °C -16.1 °C 1026.6 hPa WSW 6.9 km/h 18.5 km/h 53 % 0 mm
13:17 -8.1 °C -16.2 °C 1026.6 hPa WNW 4.2 km/h 19.3 km/h 52 % 0 mm
13:19 -8.1 °C -16.2 °C 1026.6 hPa NW 10.1 km/h 19.3 km/h 52 % 0 mm
13:24 -8 °C -15.9 °C 1026.6 hPa WNW 10.9 km/h 14.8 km/h 53 % 0 mm
13:29 -7.9 °C -16.1 °C 1026.6 hPa WNW 7.4 km/h 18.5 km/h 52 % 0 mm
13:31 -7.9 °C -16.1 °C 1026.6 hPa West 7.6 km/h 13 km/h 52 % 0 mm
13:32 -7.9 °C -15.9 °C 1026.6 hPa West 7.9 km/h 11.1 km/h 53 % 0 mm
13:36 -7.9 °C -16.5 °C 1026.6 hPa NW 14.2 km/h 31.5 km/h 50 % 0 mm
13:41 -7.9 °C -16.6 °C 1026.6 hPa NNW 11.6 km/h 20.4 km/h 50 % 0 mm
13:43 -7.9 °C -16.6 °C 1026.6 hPa NNE 6.4 km/h 13 km/h 50 % 0 mm
13:48 -7.9 °C -16.3 °C 1026.6 hPa WNW 10.3 km/h 18.5 km/h 51 % 0 mm
13:49 -7.9 °C -16.3 °C 1026.6 hPa NNW 10.1 km/h 18.5 km/h 51 % 0 mm
13:50 -7.9 °C -16.5 °C 1026.6 hPa WNW 11.4 km/h 18.5 km/h 50 % 0 mm
13:55 -7.9 °C -16.5 °C 1026.6 hPa NNW 11.7 km/h 22.2 km/h 50 % 0 mm
13:58 -7.8 °C -16.2 °C 1026.6 hPa NNW 6.1 km/h 14.8 km/h 51 % 0 mm
14:03 -7.8 °C -16.4 °C 1026.6 hPa NW 11.1 km/h 20.4 km/h 50 % 0 mm
14:08 -7.8 °C -16.4 °C 1026.6 hPa NNW 11.9 km/h 20.4 km/h 50 % 0 mm
14:13 -7.7 °C -15.9 °C 1026.3 hPa NNW 11.7 km/h 22.2 km/h 52 % 0 mm
14:15 -7.7 °C -16.1 °C 1026.3 hPa NNW 15.1 km/h 22.2 km/h 51 % 0 mm
14:20 -7.7 °C -16.1 °C 1026.3 hPa NW 13.7 km/h 18.5 km/h 51 % 0 mm
14:21 -7.7 °C -16.1 °C 1026.3 hPa WNW 11.6 km/h 18.5 km/h 51 % 0 mm
14:26 -7.8 °C -16.4 °C 1026.3 hPa NW 12.6 km/h 25.9 km/h 50 % 0 mm
14:31 -7.8 °C -16.4 °C 1026.3 hPa WNW 6.6 km/h 13 km/h 50 % 0 mm
14:37 -7.9 °C -16.5 °C 1026.3 hPa NNW 6.6 km/h 18.5 km/h 50 % 0 mm
14:39 -7.9 °C -16.3 °C 1026.6 hPa NW 7.2 km/h 14.8 km/h 51 % 0 mm
14:44 -7.9 °C -16.5 °C 1026.3 hPa NNW 5.1 km/h 16.1 km/h 50 % 0 mm
14:49 -7.9 °C -16.5 °C 1026.6 hPa NNW 9.3 km/h 20.4 km/h 50 % 0 mm
14:54 -7.9 °C -16.3 °C 1026.6 hPa NW 12.6 km/h 20.9 km/h 51 % 0 mm
14:56 -7.9 °C -16.5 °C 1026.3 hPa West 10.9 km/h 22.2 km/h 50 % 0 mm
14:57 -7.9 °C -16.8 °C 1026.6 hPa NNW 5.1 km/h 14.8 km/h 49 % 0 mm
15:02 -7.9 °C -16.5 °C 1026.3 hPa NW 8.2 km/h 16.7 km/h 50 % 0 mm
15:03 -7.9 °C -16.5 °C 1026.6 hPa NNW 7.7 km/h 16.7 km/h 50 % 0 mm
15:08 -7.9 °C -17 °C 1026.3 hPa WNW 7.6 km/h 14.8 km/h 48 % 0 mm
15:09 -7.9 °C -16.8 °C 1026.3 hPa West 8.4 km/h 8.4 km/h 49 % 0 mm
15:11 -7.9 °C -16.8 °C 1026.3 hPa SW 10.5 km/h 16.7 km/h 49 % 0 mm
15:16 -7.9 °C -16.8 °C 1026.3 hPa NW 8.5 km/h 16.7 km/h 49 % 0 mm
15:20 -7.9 °C -16.5 °C 1026.3 hPa NNW 11.4 km/h 18.5 km/h 50 % 0 mm
15:25 -7.9 °C -16.8 °C 1026.3 hPa NNW 12.4 km/h 18.5 km/h 49 % 0 mm
15:28 -7.8 °C -16.2 °C 1026.3 hPa NW 2.9 km/h 11.1 km/h 51 % 0 mm
15:33 -7.8 °C -16.4 °C 1026.6 hPa NNW 7.7 km/h 13 km/h 50 % 0 mm
15:38 -7.9 °C -16.8 °C 1026.6 hPa WNW 11.6 km/h 19.3 km/h 49 % 0 mm
15:40 -7.9 °C -16.8 °C 1026.6 hPa NW 17.1 km/h 27.4 km/h 49 % 0 mm
15:43 -7.9 °C -17 °C 1026.6 hPa NW 8.2 km/h 16.7 km/h 48 % 0 mm
15:48 -7.9 °C -17.1 °C 1026.6 hPa WNW 14 km/h 20.4 km/h 48 % 0 mm
15:53 -8 °C -16.8 °C 1026.6 hPa WNW 5.1 km/h 12.9 km/h 49 % 0 mm
15:58 -8 °C -17.3 °C 1026.6 hPa NNW 5.1 km/h 14.8 km/h 47 % 0 mm
16:01 -8 °C -17.1 °C 1026.3 hPa NNW 10.1 km/h 16.7 km/h 48 % 0 mm
16:02 -8 °C -16.8 °C 1026.3 hPa North 11.7 km/h 16.1 km/h 49 % 0 mm
16:07 -8 °C -16.6 °C 1026.6 hPa NNW 6.3 km/h 13 km/h 50 % 0 mm
16:08 -8 °C -16.6 °C 1026.6 hPa NW 9.8 km/h 13 km/h 50 % 0 mm
16:10 -8 °C -16.6 °C 1026.6 hPa WNW 5.1 km/h 11.3 km/h 50 % 0 mm
16:16 -8.1 °C -16.9 °C 1026.6 hPa WNW 9.7 km/h 19.3 km/h 49 % 0 mm
16:18 -8.1 °C -17.2 °C 1026.6 hPa NW 6.3 km/h 13 km/h 48 % 0 mm
16:23 -8.1 °C -17.2 °C 1026.6 hPa NNW 8.4 km/h 14.5 km/h 48 % 0 mm
16:26 -8.1 °C -17.2 °C 1026.6 hPa WSW 6.4 km/h 14.8 km/h 48 % 0 mm
16:31 -8.1 °C -16.7 °C 1026.6 hPa WNW 7.2 km/h 16.7 km/h 50 % 0 mm
16:38 -8 °C -17.1 °C 1026.6 hPa WNW 8.5 km/h 14.8 km/h 48 % 0 mm
16:41 -8 °C -17.3 °C 1027 hPa WSW 7.4 km/h 14.8 km/h 47 % 0 mm
16:46 -8 °C -17.3 °C 1027 hPa West 15.1 km/h 25.9 km/h 47 % 0 mm
16:50 -8.1 °C -17.7 °C 1027 hPa NNW 11.1 km/h 18.5 km/h 46 % 0 mm
16:54 -8 °C -17.1 °C 1027 hPa NW 7.4 km/h 17.7 km/h 48 % 0 mm
16:59 -8 °C -17.1 °C 1026.6 hPa WNW 6.1 km/h 13 km/h 48 % 0 mm
17:01 -8 °C -17.3 °C 1027 hPa WNW 16.3 km/h 27.4 km/h 47 % 0 mm
17:06 -8 °C -17.6 °C 1026.6 hPa NW 12.2 km/h 24.1 km/h 46 % 0 mm
17:07 -8 °C -17.3 °C 1027 hPa WSW 11.9 km/h 24.1 km/h 47 % 0 mm
17:12 -7.9 °C -17.3 °C 1027 hPa NW 8.9 km/h 11.3 km/h 47 % 0 mm
17:14 -7.9 °C -17.3 °C 1027 hPa WNW 8.9 km/h 22.2 km/h 47 % 0 mm
17:16 -7.9 °C -17.3 °C 1027 hPa WNW 11.4 km/h 14.8 km/h 47 % 0 mm
17:20 -7.9 °C -17.1 °C 1027 hPa WNW 6.8 km/h 11.1 km/h 48 % 0 mm
17:25 -7.9 °C -17.1 °C 1027 hPa WNW 9.5 km/h 17.7 km/h 48 % 0 mm
17:27 -7.9 °C -17.1 °C 1027 hPa NW 10.6 km/h 16.1 km/h 48 % 0 mm
17:28 -7.9 °C -17.1 °C 1027 hPa South 7.1 km/h 16.7 km/h 48 % 0 mm
17:33 -7.9 °C -17.1 °C 1027.3 hPa West 6 km/h 13 km/h 48 % 0 mm
17:35 -7.9 °C -17.1 °C 1027 hPa NW 14.2 km/h 24.1 km/h 48 % 0 mm
17:40 -7.9 °C -16.3 °C 1027 hPa West 5.5 km/h 12.9 km/h 51 % 0 mm
17:45 -7.9 °C -16.6 °C 1027 hPa WSW 9.7 km/h 18.5 km/h 50 % 0 mm
17:50 -7.9 °C -16.8 °C 1027 hPa WNW 11.3 km/h 22.2 km/h 49 % 0 mm
17:55 -7.9 °C -16.8 °C 1027 hPa WSW 6.1 km/h 13 km/h 49 % 0 mm
18:01 -7.9 °C -16.3 °C 1027 hPa NW 10.8 km/h 13 km/h 51 % 0 mm
18:05 -8 °C -16.6 °C 1027.3 hPa NW 8.4 km/h 20.4 km/h 50 % 0 mm
18:10 -8 °C -16.6 °C 1027.3 hPa WNW 7.4 km/h 20.9 km/h 50 % 0 mm
18:15 -7.9 °C -16.3 °C 1027 hPa WSW 6.9 km/h 13 km/h 51 % 0 mm
18:20 -7.9 °C -16.6 °C 1027.3 hPa WNW 8 km/h 12.9 km/h 50 % 0 mm
18:22 -7.9 °C -16.3 °C 1027 hPa WNW 5 km/h 18.5 km/h 51 % 0 mm
18:28 -7.9 °C -16.3 °C 1027.3 hPa WNW 11.9 km/h 20.9 km/h 51 % 0 mm
18:30 -7.9 °C -16.3 °C 1027.3 hPa West 9.7 km/h 18.5 km/h 51 % 0 mm
18:31 -7.9 °C -16.3 °C 1027.3 hPa NW 11.1 km/h 24.1 km/h 51 % 0 mm
18:36 -7.9 °C -16.5 °C 1027.3 hPa WNW 6 km/h 13 km/h 50 % 0 mm
18:37 -7.9 °C -16.5 °C 1027.3 hPa West 6.1 km/h 13 km/h 50 % 0 mm
18:39 -7.9 °C -16.3 °C 1027.3 hPa West 5.3 km/h 9.3 km/h 51 % 0 mm
18:44 -7.9 °C -16.3 °C 1027.3 hPa West 3.5 km/h 13 km/h 51 % 0 mm
18:49 -7.9 °C -16.3 °C 1027.3 hPa West 8.4 km/h 22.2 km/h 51 % 0 mm
18:51 -7.8 °C -16.4 °C 1027.3 hPa WSW 10.6 km/h 20.4 km/h 50 % 0 mm
18:56 -7.8 °C -16.4 °C 1027.3 hPa West 7.9 km/h 24.1 km/h 50 % 0 mm
19:01 -7.8 °C -16.4 °C 1027.3 hPa West 6.4 km/h 20.4 km/h 50 % 0 mm
19:02 -7.8 °C -16.4 °C 1027.3 hPa WNW 7.7 km/h 16.7 km/h 50 % 0 mm
19:07 -7.8 °C -16.4 °C 1027.3 hPa West 11.1 km/h 22.2 km/h 50 % 0 mm
19:08 -7.8 °C -16.4 °C 1027.3 hPa WNW 11.1 km/h 22.2 km/h 50 % 0 mm
19:13 -7.8 °C -16.4 °C 1027.3 hPa SW 6.8 km/h 13 km/h 50 % 0 mm
19:15 -7.8 °C -16.4 °C 1027 hPa WNW 10.5 km/h 18.5 km/h 50 % 0 mm
19:20 -7.8 °C -16.4 °C 1027 hPa WNW 9 km/h 16.7 km/h 50 % 0 mm
19:21 -7.8 °C -16.4 °C 1027 hPa SW 5 km/h 18.5 km/h 50 % 0 mm
19:26 -7.8 °C -16.4 °C 1027 hPa WNW 15.6 km/h 20.4 km/h 50 % 0 mm
19:27 -7.8 °C -16.4 °C 1027.3 hPa NW 14.2 km/h 22.2 km/h 50 % 0 mm
19:32 -7.8 °C -16.4 °C 1027 hPa NW 7.6 km/h 19.3 km/h 50 % 0 mm
19:33 -7.8 °C -16.4 °C 1027.3 hPa West 6.9 km/h 18.5 km/h 50 % 0 mm
19:38 -7.8 °C -16.2 °C 1027.3 hPa WNW 7.9 km/h 14.5 km/h 51 % 0 mm
19:41 -7.8 °C -16.4 °C 1027.3 hPa WNW 8.5 km/h 18.5 km/h 50 % 0 mm
19:47 -7.8 °C -15.9 °C 1027.3 hPa WNW 13 km/h 24.1 km/h 52 % 0 mm
19:48 -7.8 °C -15.9 °C 1027.3 hPa NW 16.3 km/h 24.1 km/h 52 % 0 mm
19:53 -7.8 °C -16.4 °C 1027.3 hPa WNW 7.6 km/h 20.4 km/h 50 % 0 mm
19:55 -7.8 °C -16.4 °C 1027.3 hPa NW 14.6 km/h 25.9 km/h 50 % 0 mm
20:00 -7.8 °C -16.2 °C 1027.3 hPa WNW 10.5 km/h 20.4 km/h 51 % 0 mm
20:03 -7.8 °C -16.2 °C 1027.3 hPa WNW 7.2 km/h 18.5 km/h 51 % 0 mm
20:06 -7.8 °C -16.2 °C 1027.3 hPa West 9.8 km/h 22.2 km/h 51 % 0 mm
20:11 -7.8 °C -16.2 °C 1027.3 hPa West 12.4 km/h 20.4 km/h 51 % 0 mm
20:12 -7.8 °C -15.9 °C 1027.3 hPa West 9.7 km/h 18.5 km/h 52 % 0 mm
20:16 -7.8 °C -15.9 °C 1027.3 hPa SW 11.1 km/h 17.7 km/h 52 % 0 mm
20:21 -7.8 °C -15.8 °C 1027.3 hPa WNW 9.3 km/h 16.1 km/h 53 % 0 mm
20:25 -7.8 °C -15.8 °C 1027.3 hPa West 9.7 km/h 18.5 km/h 53 % 0 mm
20:27 -7.8 °C -15.6 °C 1027.3 hPa WNW 9.8 km/h 14.8 km/h 54 % 0 mm
20:32 -7.8 °C -15.8 °C 1027.3 hPa NW 12.4 km/h 20.9 km/h 53 % 0 mm
20:35 -7.8 °C -15.6 °C 1027.3 hPa WNW 13.2 km/h 29.6 km/h 54 % 0 mm
20:38 -7.8 °C -15.6 °C 1027.7 hPa WSW 8.5 km/h 18.5 km/h 54 % 0 mm
20:40 -7.8 °C -15.6 °C 1027.3 hPa NW 12.9 km/h 20.4 km/h 54 % 0 mm
20:45 -7.8 °C -15.6 °C 1027.3 hPa WNW 8.2 km/h 20.4 km/h 54 % 0 mm
20:49 -7.8 °C -15.8 °C 1027.3 hPa WSW 7.4 km/h 24.1 km/h 53 % 0 mm
20:53 -7.8 °C -15.8 °C 1027.3 hPa WNW 9.2 km/h 18.5 km/h 53 % 0 mm
20:56 -7.8 °C -15.8 °C 1027.3 hPa West 7.4 km/h 16.1 km/h 53 % 0 mm
20:58 -7.8 °C -15.8 °C 1027.3 hPa West 11.6 km/h 20.4 km/h 53 % 0 mm
21:03 -7.9 °C -15.8 °C 1027.3 hPa WNW 7.4 km/h 18.5 km/h 53 % 0 mm
21:12 -7.8 °C -15.8 °C 1027.3 hPa NW 9.7 km/h 18.5 km/h 53 % 0 mm
21:13 -7.8 °C -15.8 °C 1027.3 hPa WSW 9.5 km/h 14.8 km/h 53 % 0 mm
21:17 -7.8 °C -15.6 °C 1027 hPa WSW 7.9 km/h 14.8 km/h 54 % 0 mm
21:19 -7.8 °C -15.6 °C 1027 hPa SW 11.1 km/h 18.5 km/h 54 % 0 mm
21:24 -7.8 °C -15.8 °C 1027.3 hPa SW 9 km/h 24.1 km/h 53 % 0 mm
21:25 -7.8 °C -15.6 °C 1027 hPa WSW 12.1 km/h 18.5 km/h 54 % 0 mm
21:31 -7.8 °C -15.5 °C 1027.3 hPa West 12.9 km/h 22.5 km/h 54 % 0 mm
21:34 -7.8 °C -15.3 °C 1027 hPa WSW 12.2 km/h 18.5 km/h 55 % 0 mm
21:37 -7.8 °C -15.3 °C 1027 hPa West 7.1 km/h 14.8 km/h 55 % 0 mm
21:44 -7.8 °C -15.1 °C 1027 hPa WSW 8.7 km/h 20.9 km/h 56 % 0 mm
21:49 -7.8 °C -14.9 °C 1027.3 hPa WSW 11.7 km/h 20.4 km/h 57 % 0 mm
21:50 -7.8 °C -14.8 °C 1027 hPa SW 11.4 km/h 20.4 km/h 57 % 0 mm
21:55 -7.8 °C -14.8 °C 1027.3 hPa WSW 9.5 km/h 22.5 km/h 57 % 0 mm
22:00 -7.8 °C -14.6 °C 1027 hPa West 19.2 km/h 27.8 km/h 58 % 0 mm
22:01 -7.7 °C -14.6 °C 1027.3 hPa NW 10.3 km/h 22.2 km/h 58 % 0 mm
22:07 -7.7 °C -14.6 °C 1027 hPa WNW 5.3 km/h 18.5 km/h 58 % 0 mm
22:13 -7.7 °C -14.6 °C 1027.3 hPa WSW 12.2 km/h 19.3 km/h 58 % 0 mm
22:16 -7.7 °C -14.3 °C 1027.3 hPa WSW 7.4 km/h 18.5 km/h 59 % 0 mm
22:20 -7.7 °C -14.3 °C 1027 hPa West 9.7 km/h 19.3 km/h 59 % 0 mm
22:21 -7.7 °C -14.3 °C 1027 hPa WSW 9.5 km/h 14.8 km/h 59 % 0 mm
22:31 -7.7 °C -13.9 °C 1027 hPa West 11.7 km/h 18.5 km/h 61 % 0 mm
22:36 -7.7 °C -13.9 °C 1027 hPa NW 10.5 km/h 22.2 km/h 61 % 0 mm
22:41 -7.7 °C -13.9 °C 1027 hPa WSW 10.3 km/h 16.1 km/h 61 % 0 mm
22:45 -7.7 °C -13.9 °C 1027 hPa WSW 8.7 km/h 18.5 km/h 61 % 0 mm
22:50 -7.7 °C -13.9 °C 1027 hPa West 9.8 km/h 16.7 km/h 61 % 0 mm
22:51 -7.7 °C -13.9 °C 1027 hPa West 6.8 km/h 14.5 km/h 61 % 0 mm
22:56 -7.7 °C -13.7 °C 1027 hPa WSW 13.5 km/h 19.3 km/h 62 % 0 mm
22:57 -7.7 °C -13.9 °C 1027 hPa NNW 11.9 km/h 27.8 km/h 61 % 0 mm
23:02 -7.7 °C -14.2 °C 1027 hPa WSW 18 km/h 25.7 km/h 60 % 0 mm
23:07 -7.7 °C -14.1 °C 1027 hPa WSW 8.2 km/h 16.7 km/h 60 % 0 mm
23:09 -7.7 °C -14.2 °C 1027 hPa SW 12.7 km/h 29 km/h 60 % 0 mm
23:13 -7.7 °C -13.9 °C 1027 hPa WSW 8.5 km/h 16.7 km/h 61 % 0 mm
23:23 -7.8 °C -14 °C 1027 hPa WNW 13.7 km/h 22.5 km/h 61 % 0 mm
23:24 -7.8 °C -14 °C 1027 hPa West 15.9 km/h 20.9 km/h 61 % 0 mm
23:29 -7.8 °C -14 °C 1027 hPa West 11.4 km/h 22.2 km/h 61 % 0 mm
23:30 -7.8 °C -14 °C 1026.6 hPa WNW 6.9 km/h 18.5 km/h 61 % 0 mm
23:35 -7.8 °C -14.1 °C 1027 hPa West 12.6 km/h 20.9 km/h 61 % 0 mm
23:38 -7.8 °C -13.8 °C 1027 hPa WNW 6.1 km/h 11.1 km/h 62 % 0 mm
23:44 -7.9 °C -13.9 °C 1026.6 hPa West 16.1 km/h 24.1 km/h 62 % 0 mm
23:46 -7.9 °C -13.9 °C 1027 hPa WNW 10 km/h 22.5 km/h 62 % 0 mm
23:55 -8 °C -14 °C 1026.6 hPa NNW 17.4 km/h 29.6 km/h 62 % 0 mm
Crab Meadow Weather
Compliments of Weather Underground - 3.5 mb

Script developed by  Jim McMurry - jmcmurry@mwt.net Adapted for the template by  Wim van der Kuil - Leuven-Template.eu

Weather Terms: Tornado Watch - Conditions are favorable for the development of severe thunderstorms and tornadoes in and close to the watch area. These watches are issued for large areas by the Storm Prediction Center in Norman, Oklahoma, and are usually valid for four to six hours.